LIPZ Airport Information

Runway Information
Runway 04L Length 9121 ft width 148 ft
Elevation 7 ft Threshold 308 ft Heading 42
Runway 22R Length 9121 ft Width 148 ft
Elevation 7 ft Threshold 0 ft Heading 222
Runway 04R Length 10827 ft width 148 ft
Elevation 7 ft Threshold 0 ft Heading 42
Runway 22L Length 10827 ft Width 148 ft
Elevation 7 ft Threshold 0 ft Heading 222
Airport Frequencies
Type APP Name APP Frequency 118.9 MHZ
Type ATIS Name ATIS Frequency 122.225 MHZ
Type GND Name GND Frequency 121.7 MHZ
Type TWR Name TWR Frequency 120.2 MHZ
Airport Navaids
Type VOR-DME Name Tessera Frequency 115300 KHZ
Type NDB Name Venezia Frequency 379 KHZ
Airport Weather Information & NOTAM
ADDS - METARS form results

(1141 UTC 17 July 2018)
 
METAR text: LIPZ 171120Z 17006KT 130V210 CAVOK 27/19 Q1011 NOSIG
Conditions at: LIPZ (VENEZIA/TESSERA , IT) observed 1120 UTC 17 July 2018
Temperature: 27.0°C (81°F)
Dewpoint: 19.0°C (66°F) [RH = 62%]
Pressure (altimeter): 29.85 inches Hg (1011.0 mb)
Winds: from the S (170 degrees) at 7 MPH (6 knots; 3.1 m/s)
Visibility: 6 or more miles (10+ km)
Ceiling: ceiling and visibility are OK
Clouds: unknown
Weather: no significant weather observed at this time

METAR text: LIPZ 171050Z 17005KT 140V200 CAVOK 27/18 Q1011 NOSIG
Conditions at: LIPZ (VENEZIA/TESSERA , IT) observed 1050 UTC 17 July 2018
Temperature: 27.0°C (81°F)
Dewpoint: 18.0°C (64°F) [RH = 58%]
Pressure (altimeter): 29.85 inches Hg (1011.0 mb)
Winds: from the S (170 degrees) at 6 MPH (5 knots; 2.6 m/s)
Visibility: 6 or more miles (10+ km)
Ceiling: ceiling and visibility are OK
Clouds: unknown
Weather: no significant weather observed at this time